{"data":{"norad_id":67285,"epoch":"2026-05-25T02:45:53.648928Z","epoch_age_seconds":75250,"freshness":"FRESH","line1":"1 67285U 25313AP  26145.11520427  .00006210  00000+0  26365-3 0  9995","line2":"2 67285  97.3924 220.2709 0011899  84.8015 275.4579 15.23371677 22454","mean_motion":15.23371677,"eccentricity":0.0011899,"inclination_deg":97.3924,"raan_deg":220.2709,"arg_perigee_deg":84.8015,"mean_anomaly_deg":275.4579,"bstar":0.00026365,"rev_number":2245,"period_min":94.527161147949,"perigee_km":487.5001752404,"apogee_km":503.85848334085,"semimajor_km":6873.8163292906,"source":"CELESTRAK","updated_at":"2026-05-25T13:38:06.854649Z"}}